When you browse on this site, cookies collect data to enhance your experience and personalize the content and advertising you see.
Visit our Privacy Policy to learn more. By continuing to use the site, you agree to this use of cookies and data.
  • In Denmark
  • List of Countries
  • For 7 days
  • Water Temperature
  • Satellite Maps
  • Weather Map
  • Weather Widgets
  • user-avatar
    Login

    Hourly Weather Pontypool

    Today, 24 July, Wednesday

    Time Temperature Precipitation Wind Pressure Humidity
    00:00 +20°C° 1.2 mm 2 mps 743 mmHg 94%
    01:00 +20°C° 0.9 mm 2 mps 743 mmHg 95%
    02:00 +19°C° 0.9 mm 2 mps 743 mmHg 96%
    03:00 +19°C° 0.9 mm 2 mps 743 mmHg 97%
    04:00 +19°C° 0 mm 2 mps 743 mmHg 96%
    05:00 +18°C° 0 mm 2 mps 743 mmHg 96%
    06:00 +18°C° 0 mm 2 mps 743 mmHg 95%
    07:00 +19°C° 0 mm 2 mps 743 mmHg 89%
    08:00 +20°C° 0 mm 3 mps 744 mmHg 84%
    09:00 +21°C° 0 mm 3 mps 744 mmHg 78%
    10:00 +21°C° 0 mm 4 mps 744 mmHg 78%
    11:00 +22°C° 0 mm 4 mps 745 mmHg 78%
    12:00 +22°C° 0 mm 5 mps 745 mmHg 78%
    13:00 +23°C° 0 mm 4 mps 745 mmHg 77%
    14:00 +23°C° 0 mm 4 mps 745 mmHg 76%
    15:00 +24°C° 0 mm 3 mps 745 mmHg 75%
    16:00 +24°C° 0 mm 3 mps 745 mmHg 77%
    17:00 +24°C° 0 mm 3 mps 745 mmHg 79%
    18:00 +22°C° 0 mm 3 mps 745 mmHg 82%
    19:00 +21°C° 0 mm 2 mps 745 mmHg 85%
    20:00 +20°C° 0 mm 2 mps 745 mmHg 89%
    21:00 +19°C° 0 mm 2 mps 745 mmHg 92%
    22:00 +18°C° 0 mm 2 mps 745 mmHg 92%
    23:00 +18°C° 0 mm 1 mps 744 mmHg 92%

    Tomorrow, 25 July, Thursday

    Time Temperature Precipitation Wind Pressure Humidity
    00:00 +18°C° 0 mm 1 mps 744 mmHg 92%
    01:00 +16°C° 0 mm 1 mps 744 mmHg 90%
    02:00 +16°C° 0 mm 1 mps 744 mmHg 88%
    03:00 +16°C° 0 mm 1 mps 744 mmHg 86%
    04:00 +18°C° 0 mm 1 mps 744 mmHg 83%
    05:00 +18°C° 0 mm 1 mps 743 mmHg 81%
    06:00 +18°C° 0 mm 2 mps 743 mmHg 79%
    07:00 +19°C° 0 mm 2 mps 743 mmHg 76%
    08:00 +21°C° 0 mm 2 mps 743 mmHg 73%
    09:00 +23°C° 0 mm 2 mps 743 mmHg 70%
    10:00 +25°C° 0.2 mm 2 mps 743 mmHg 70%
    11:00 +26°C° 0.2 mm 2 mps 742 mmHg 71%
    12:00 +28°C° 0.2 mm 3 mps 742 mmHg 72%
    13:00 +28°C° 0 mm 3 mps 742 mmHg 70%
    14:00 +28°C° 0 mm 3 mps 742 mmHg 68%
    15:00 +29°C° 0 mm 4 mps 742 mmHg 67%
    16:00 +28°C° 0 mm 4 mps 742 mmHg 70%
    17:00 +27°C° 0 mm 4 mps 742 mmHg 72%
    18:00 +26°C° 0 mm 4 mps 742 mmHg 75%
    19:00 +24°C° 0 mm 3 mps 742 mmHg 78%
    20:00 +21°C° 0 mm 3 mps 742 mmHg 82%
    21:00 +19°C° 0 mm 2 mps 742 mmHg 85%
    22:00 +18°C° 0 mm 2 mps 743 mmHg 86%
    23:00 +18°C° 0 mm 2 mps 743 mmHg 88%

    Day after tomorrow, 26 July, Friday

    Time Temperature Precipitation Wind Pressure Humidity
    00:00 +17°C° 0 mm 2 mps 743 mmHg 89%
    01:00 +17°C° 0 mm 2 mps 743 mmHg 92%
    02:00 +17°C° 0 mm 2 mps 743 mmHg 94%
    03:00 +16°C° 0 mm 3 mps 742 mmHg 97%
    04:00 +16°C° 0 mm 3 mps 742 mmHg 96%
    05:00 +17°C° 0 mm 3 mps 743 mmHg 95%
    06:00 +17°C° 0 mm 2 mps 743 mmHg 94%
    07:00 +18°C° 0 mm 3 mps 743 mmHg 89%
    08:00 +19°C° 0 mm 3 mps 743 mmHg 85%
    09:00 +20°C° 0 mm 4 mps 743 mmHg 80%
    10:00 +21°C° 0 mm 4 mps 743 mmHg 77%
    11:00 +22°C° 0 mm 4 mps 743 mmHg 74%
    12:00 +22°C° 0 mm 4 mps 743 mmHg 71%
    13:00 +22°C° 0 mm 3 mps 743 mmHg 73%
    14:00 +21°C° 0 mm 2 mps 744 mmHg 75%
    15:00 +21°C° 0 mm 2 mps 744 mmHg 78%
    16:00 +20°C° 0 mm 2 mps 744 mmHg 80%
    17:00 +20°C° 0 mm 2 mps 743 mmHg 81%
    18:00 +19°C° 0 mm 3 mps 743 mmHg 83%
    19:00 +18°C° 0 mm 2 mps 743 mmHg 86%
    20:00 +17°C° 0 mm 2 mps 743 mmHg 89%
    21:00 +16°C° 0 mm 2 mps 743 mmHg 92%
    22:00 +15°C° 0 mm 2 mps 743 mmHg 93%
    23:00 +15°C° 0 mm 2 mps 743 mmHg 93%

    27 July, Saturday

    Time Temperature Precipitation Wind Pressure Humidity
    00:00 +14°C° 0 mm 2 mps 743 mmHg 94%
    01:00 +14°C° 0 mm 2 mps 743 mmHg 93%
    02:00 +14°C° 0 mm 2 mps 742 mmHg 93%
    03:00 +14°C° 0 mm 2 mps 742 mmHg 92%
    04:00 +14°C° 0.6 mm 2 mps 742 mmHg 92%
    05:00 +15°C° 0.6 mm 2 mps 742 mmHg 93%
    06:00 +15°C° 0.6 mm 2 mps 742 mmHg 93%
    07:00 +16°C° 0.1 mm 2 mps 742 mmHg 88%
    08:00 +16°C° 0.1 mm 2 mps 742 mmHg 84%
    09:00 +17°C° 0.1 mm 2 mps 742 mmHg 80%
    10:00 +18°C° 0 mm 2 mps 742 mmHg 77%
    11:00 +19°C° 0 mm 3 mps 742 mmHg 73%
    12:00 +20°C° 0 mm 3 mps 741 mmHg 70%
    13:00 +20°C° 0.1 mm 3 mps 741 mmHg 71%
    14:00 +20°C° 0.1 mm 4 mps 741 mmHg 71%
    15:00 +20°C° 0.1 mm 4 mps 741 mmHg 72%
    16:00 +20°C° 0.1 mm 4 mps 741 mmHg 74%
    17:00 +20°C° 0.1 mm 4 mps 741 mmHg 76%
    18:00 +19°C° 0.1 mm 4 mps 741 mmHg 78%
    19:00 +18°C° 0 mm 4 mps 741 mmHg 83%
    20:00 +16°C° 0 mm 3 mps 741 mmHg 88%
    21:00 +15°C° 0 mm 2 mps 741 mmHg 93%
    22:00 +14°C° 0 mm 2 mps 741 mmHg 94%
    23:00 +14°C° 0 mm 2 mps 741 mmHg 95%

    28 July, Sunday

    Time Temperature Precipitation Wind Pressure Humidity
    00:00 +13°C° 0 mm 1 mps 741 mmHg 95%
    01:00 +13°C° 0 mm 2 mps 741 mmHg 95%
    02:00 +13°C° 0 mm 2 mps 741 mmHg 95%
    03:00 +13°C° 0 mm 2 mps 741 mmHg 96%
    04:00 +14°C° 0 mm 2 mps 741 mmHg 94%
    05:00 +14°C° 0 mm 2 mps 741 mmHg 93%
    06:00 +15°C° 0 mm 1 mps 742 mmHg 92%
    07:00 +16°C° 0 mm 2 mps 742 mmHg 86%
    08:00 +17°C° 0 mm 2 mps 742 mmHg 81%
    09:00 +19°C° 0 mm 2 mps 742 mmHg 75%
    10:00 +20°C° 0 mm 2 mps 743 mmHg 73%
    11:00 +20°C° 0 mm 3 mps 743 mmHg 71%
    12:00 +21°C° 0 mm 3 mps 743 mmHg 68%
    13:00 +21°C° 0 mm 3 mps 743 mmHg 70%
    14:00 +21°C° 0 mm 3 mps 743 mmHg 71%
    15:00 +21°C° 0 mm 4 mps 744 mmHg 73%
    16:00 +21°C° 0.1 mm 3 mps 744 mmHg 75%
    17:00 +20°C° 0.1 mm 3 mps 744 mmHg 77%
    18:00 +20°C° 0.1 mm 3 mps 744 mmHg 79%
    19:00 +18°C° 0 mm 3 mps 744 mmHg 83%
    20:00 +17°C° 0 mm 2 mps 745 mmHg 87%
    21:00 +15°C° 0 mm 1 mps 745 mmHg 92%
    22:00 +15°C° 0 mm 1 mps 745 mmHg 91%
    23:00 +15°C° 0 mm 1 mps 746 mmHg 90%

    29 July, Monday

    Time Temperature Precipitation Wind Pressure Humidity
    00:00 +15°C° 0 mm 1 mps 746 mmHg 90%
    01:00 +15°C° 0 mm 1 mps 746 mmHg 89%
    02:00 +15°C° 0 mm 1 mps 746 mmHg 89%
    03:00 +14°C° 0 mm 1 mps 746 mmHg 88%
    04:00 +15°C° 0 mm 1 mps 746 mmHg 88%
    05:00 +15°C° 0 mm 1 mps 746 mmHg 87%
    06:00 +16°C° 0 mm 1 mps 746 mmHg 87%
    07:00 +18°C° 0 mm 1 mps 747 mmHg 85%
    08:00 +18°C° 0 mm 1 mps 747 mmHg 83%
    09:00 +19°C° 0 mm 1 mps 747 mmHg 81%
    10:00 +20°C° 0.1 mm 1 mps 747 mmHg 77%
    11:00 +21°C° 0.1 mm 1 mps 747 mmHg 73%
    12:00 +22°C° 0.1 mm 1 mps 747 mmHg 68%
    13:00 +23°C° 0.1 mm 1 mps 747 mmHg 67%
    14:00 +23°C° 0.1 mm 1 mps 747 mmHg 66%
    15:00 +23°C° 0.1 mm 2 mps 747 mmHg 65%
    16:00 +23°C° 0.1 mm 1 mps 746 mmHg 68%
    17:00 +23°C° 0.1 mm 1 mps 746 mmHg 70%
    18:00 +23°C° 0.1 mm 1 mps 746 mmHg 73%
    19:00 +21°C° 0 mm 1 mps 746 mmHg 78%
    20:00 +19°C° 0 mm 1 mps 746 mmHg 83%
    21:00 +16°C° 0 mm 1 mps 746 mmHg 87%
    22:00 +16°C° 0 mm 1 mps 746 mmHg 88%
    23:00 +15°C° 0 mm 1 mps 745 mmHg 88%
    Show more